Location: Woodhurst
(52.3667°N, 0.0667°W)
Time: 15:39:40
(UTC+00:00)

Cosmos 1707 - Pass Details

Date: 19 May 2025
Orbit: 423 x 430 km, 82.5° (Epoch: 12 June)

Event Time Altitude Azimuth Distance (km) Brightness Sun altitude
Exits shadow 22:51:33 26° 111° (ESE) 887 3.5 -16.3°
Maximum altitude 22:52:09 28° 92° (E) 849 3.6 -16.3°
Drops below altitude 10° 22:55:05 10° 31° (NNE) 1,553 5.7 -16.4°
Sets 22:57:19 0° 20° (NNE) 2,428 7.1 -16.5°
